TimeEST,TemperatureF,Dew PointF,Humidity,Sea Level PressureIn,VisibilityMPH,Wind Direction,Wind SpeedMPH,Gust SpeedMPH,PrecipitationIn,Events,Conditions,WindDirDegrees,DateUTC
12:54 AM,48.9,27.0,43,30.04,10.0,WSW,11.5,-,N/A,,Clear,240,2013-01-01 05:54:00
1:54 AM,48.2,26.6,43,30.05,10.0,WSW,12.7,-,N/A,,Clear,240,2013-01-01 06:54:00
2:54 AM,48.9,27.0,43,30.03,10.0,West,6.9,-,N/A,,Clear,260,2013-01-01 07:54:00
4:54 AM,46.9,28.9,50,30.01,10.0,SW,5.8,-,N/A,,Mostly Cloudy,230,2013-01-01 09:54:00
5:54 AM,46.9,28.9,50,30.03,10.0,WSW,5.8,-,0.00,,Overcast,240,2013-01-01 10:54:00
6:54 AM,46.0,32.0,58,30.03,9.0,WSW,8.1,-,0.00,Rain,Light Rain,240,2013-01-01 11:54:00
7:54 AM,45.0,35.1,68,30.02,8.0,West,4.6,-,0.02,Rain,Light Rain,260,2013-01-01 12:54:00
8:54 AM,45.0,36.0,71,30.02,6.0,SW,5.8,-,0.02,Rain,Light Rain,230,2013-01-01 13:54:00
9:54 AM,45.0,36.0,71,30.03,8.0,SW,8.1,-,0.02,Rain,Light Rain,230,2013-01-01 14:54:00
10:54 AM,46.0,37.0,71,30.03,10.0,SW,6.9,-,0.01,,Mostly Cloudy,220,2013-01-01 15:54:00
11:54 AM,46.9,37.0,68,30.00,10.0,WSW,10.4,-,N/A,,Scattered Clouds,240,2013-01-01 16:54:00
12:54 PM,48.2,37.4,66,29.95,10.0,SW,4.6,-,N/A,,Overcast,230,2013-01-01 17:54:00
1:54 PM,48.2,37.4,66,29.94,10.0,WSW,8.1,-,N/A,,Overcast,240,2013-01-01 18:54:00
2:54 PM,48.9,37.0,64,29.91,10.0,SW,9.2,-,N/A,,Overcast,220,2013-01-01 19:54:00
3:54 PM,48.9,37.0,64,29.94,10.0,West,5.8,-,N/A,,Overcast,270,2013-01-01 20:54:00
4:54 PM,48.0,39.0,71,29.96,10.0,WNW,3.5,-,0.00,Rain,Light Rain,290,2013-01-01 21:54:00
5:54 PM,48.0,39.0,71,29.96,10.0,WNW,3.5,-,0.00,,Scattered Clouds,290,2013-01-01 22:54:00
6:54 PM,48.0,39.0,71,29.97,10.0,Calm,Calm,-,N/A,,Scattered Clouds,0,2013-01-01 23:54:00
7:54 PM,46.9,39.0,74,29.98,10.0,SW,5.8,-,N/A,,Overcast,220,2013-01-02 00:54:00
8:54 PM,46.9,39.9,77,29.98,10.0,Calm,Calm,-,0.00,Rain,Light Rain,0,2013-01-02 01:54:00
9:54 PM,46.0,41.0,83,30.00,5.0,Calm,Calm,-,0.03,Rain,Light Rain,0,2013-01-02 02:54:00
10:54 PM,45.0,41.0,86,30.01,3.0,NNE,3.5,-,0.05,Rain,Light Rain,20,2013-01-02 03:54:00
11:14 PM,46.4,41.0,81,30.01,5.0,NNE,5.8,-,0.00,Rain,Light Rain,30,2013-01-02 04:14:00
11:49 PM,44.6,39.2,81,30.01,5.0,NE,6.9,-,0.03,Rain,Light Rain,40,2013-01-02 04:49:00
11:54 PM,45.0,39.9,82,30.01,5.0,NE,5.8,-,0.03,Rain,Light Rain,50,2013-01-02 04:54:00